Weather History for Torrington, WY

Change the Weather History Date:

Thursday, December 6, 2012

  Actual Average Record
Temperature  
Mean Temperature 40 °F 28 °F  
Max Temperature 50 °F 41 °F 63 °F (2003)
Min Temperature 30 °F 15 °F -8 °F (2005)
Degree Days  
Heating Degree Days 25 37  
Month to date heating degree days 107 219  
Since 1 July heating degree days 1450 1802  
Cooling Degree Days 0 0  
Month to date cooling degree days 0 0  
Year to date cooling degree days 1021 678  
Moisture  
Dew Point 28 °F    
Average Humidity 69    
Maximum Humidity 89    
Minimum Humidity 49    
Precipitation  
Precipitation T in 0.02 in 0.25 in (2009)
Month to date precipitation T 0.09  
Year to date precipitation 7.00 13.93  
Sea Level Pressure  
Sea Level Pressure 29.95 in    
Wind  
Wind Speed 11 mph (East)    
Max Wind Speed 23 mph    
Max Gust Speed 28 mph    
Visibility 10 miles    
Events Rain , Snow    
T = Trace of Precipitation, MM = Missing Value Source: NWS Daily Summary

Daily Weather History Graph

Daily Weather History Graph

Search for Another Location

Airport:

Trip Planner

Search our weather history database for the weather conditions in past years. The results will help you decide how hot, cold, wet, or windy it might be!

Date:

Astronomy

Dec. 06, 2012 Rise Set
Actual Time 7:10 AM MST 4:24 PM MST
Civil Twilight 6:39 AM MST 4:56 PM MST
Nautical Twilight 6:04 AM MST 5:31 PM MST
Astronomical Twilight 5:30 AM MST 6:05 PM MST
Moon No Moon Rise 11:58 AM MST (12/6)
Length of Visible Light 10h 17m
Length of Day
9h 14m
Waning Gibbous, 48% of the Moon is Illuminated
Dec 6
Waning Gibbous
Dec 13
New
Dec 19
First Quarter
Dec 28
Full
Jan 4
Last Quarter

Hourly Weather History & Observations

Time (MST) Temp. Windchill Dew Point Humidity Pressure Visibility Wind Dir Wind Speed Gust Speed Precip Events Conditions
12:53 AM 48.0 °F - 32.0 °F 54% 29.81 in 10.0 mi West 12.7 mph - N/A   Clear
1:53 AM 46.0 °F 41.9 °F 32.0 °F 58% 29.84 in 10.0 mi NW 8.1 mph - N/A   Scattered Clouds
2:53 AM 46.0 °F 38.8 °F 34.0 °F 63% 29.89 in 10.0 mi North 18.4 mph 23.0 mph 0.00 in Rain Light Rain
3:53 AM 39.9 °F 32.5 °F 33.1 °F 77% 29.92 in 10.0 mi NNE 12.7 mph 26.5 mph 0.00 in   Overcast
4:53 AM 37.0 °F 31.6 °F 32.0 °F 82% 29.97 in 10.0 mi NNE 6.9 mph - N/A   Mostly Cloudy
5:53 AM 36.0 °F 28.0 °F 28.9 °F 76% 30.01 in 10.0 mi NNE 11.5 mph - N/A   Overcast
6:53 AM 33.1 °F 24.9 °F 28.0 °F 82% 30.04 in 10.0 mi ENE 10.4 mph - N/A   Overcast
7:29 AM 33.8 °F 29.6 °F 30.2 °F 87% 30.05 in 5.0 mi East 4.6 mph - 0.00 in Snow Light Snow
7:53 AM 32.0 °F 24.8 °F 30.0 °F 92% 30.06 in 4.0 mi East 8.1 mph - 0.00 in Snow Light Snow
8:46 AM 32.0 °F 24.8 °F 30.2 °F 93% 30.06 in 10.0 mi ESE 8.1 mph - 0.00 in   Overcast
8:53 AM 33.1 °F 26.9 °F 30.9 °F 92% 30.06 in 10.0 mi East 6.9 mph - 0.00 in   Overcast
9:53 AM 34.0 °F 28.0 °F 30.0 °F 85% 30.06 in 10.0 mi East 6.9 mph - N/A   Overcast
10:03 AM 35.6 °F 29.2 °F 30.2 °F 81% 30.06 in 10.0 mi ESE 8.1 mph - N/A   Overcast
10:26 AM 35.6 °F 28.6 °F 28.4 °F 75% 30.05 in 10.0 mi ESE 9.2 mph - N/A   Overcast
10:53 AM 37.9 °F 32.1 °F 28.9 °F 70% 30.02 in 10.0 mi SE 8.1 mph - N/A   Mostly Cloudy
11:53 AM 39.9 °F 32.1 °F 27.0 °F 60% 29.98 in 10.0 mi SSE 13.8 mph 17.3 mph N/A   Clear
12:53 PM 42.1 °F 34.9 °F 26.1 °F 53% 29.96 in 10.0 mi SSE 13.8 mph 19.6 mph N/A   Clear
1:53 PM 44.1 °F 38.1 °F 26.1 °F 49% 29.92 in 10.0 mi SE 11.5 mph - N/A   Clear
2:53 PM 43.0 °F 36.4 °F 26.1 °F 51% 29.89 in 10.0 mi SE 12.7 mph - N/A   Clear
3:53 PM 41.0 °F 34.3 °F 26.1 °F 55% 29.89 in 10.0 mi ESE 11.5 mph - N/A   Clear
4:53 PM 37.0 °F 28.5 °F 25.0 °F 62% 29.91 in 10.0 mi ESE 13.8 mph - N/A   Clear
5:53 PM 34.0 °F 24.6 °F 24.1 °F 67% 29.92 in 10.0 mi ESE 13.8 mph - N/A   Clear
6:53 PM 33.1 °F 23.0 °F 23.0 °F 66% 29.92 in 10.0 mi ESE 15.0 mph - N/A   Partly Cloudy
7:53 PM 32.0 °F 23.6 °F 21.9 °F 66% 29.93 in 10.0 mi ESE 10.4 mph - N/A   Clear
8:53 PM 32.0 °F 24.2 °F 23.0 °F 69% 29.91 in 10.0 mi East 9.2 mph - N/A   Clear
9:53 PM 30.9 °F 24.3 °F 23.0 °F 72% 29.91 in 10.0 mi SE 6.9 mph - N/A   Clear
10:53 PM 33.1 °F 26.1 °F 23.0 °F 66% 29.86 in 10.0 mi East 8.1 mph - N/A   Clear
11:53 PM 35.1 °F 29.3 °F 21.9 °F 59% 29.83 in 10.0 mi ESE 6.9 mph - N/A   Clear